Location: Remedello Sotto
(45.2500°N, 10.3667°E)
Time: 11:22:58
(UTC+00:00)

Cosmos 1553 Rocket - Pass Details

Date: 03 February 2023
Orbit: 942 x 1007 km, 82.9° (Epoch: 20 March)

Event Time Altitude Azimuth Distance (km) Brightness Sun altitude
Rises 17:52:40 0° 177° (S) 3,594 7.0 -15.1°
Reaches altitude 10° 17:55:08 10° 175° (S) 2,656 6.3 -15.5°
Maximum altitude 18:01:08 68° 94° (E) 1,023 3.9 -16.6°
Drops below altitude 10° 18:07:15 10° 13° (NNE) 2,705 6.1 -17.7°
Sets 18:09:47 0° 11° (N) 3,665 6.8 -18.1°
